When you browse on this site, cookies collect data to enhance your experience and personalize the content and advertising you see.
Visit our Privacy Policy to learn more. By continuing to use the site, you agree to this use of cookies and data.
  • In Hungary
  • List of Countries
  • For 7 days
  • Water Temperature
  • Satellite Maps
  • Weather Map
  • News
  • Weather Widgets
  • user-avatar
    Login

    Hourly Weather Semyakovo

    Today, 20 November, Tuesday

    Time Temperature Precipitation Wind Pressure Humidity
    00:00 0°C° 0.1 mm 1 mps 752 mmHg 96%
    01:00 0°C° 0.1 mm 1 mps 752 mmHg 96%
    02:00 -1°C° 0.1 mm 1 mps 752 mmHg 96%
    03:00 -1°C° 0.1 mm 1 mps 752 mmHg 97%
    04:00 -1°C° 0 mm 1 mps 752 mmHg 97%
    05:00 -1°C° 0.1 mm 1 mps 752 mmHg 96%
    06:00 -3°C° 0.1 mm 2 mps 752 mmHg 96%
    07:00 -3°C° 0.1 mm 2 mps 751 mmHg 96%
    08:00 -3°C° 0.1 mm 2 mps 751 mmHg 96%
    09:00 -3°C° 0.1 mm 2 mps 751 mmHg 95%
    10:00 -3°C° 0 mm 2 mps 751 mmHg 94%
    11:00 -2°C° 0.1 mm 2 mps 751 mmHg 92%
    12:00 -2°C° 0.1 mm 2 mps 751 mmHg 91%
    13:00 -2°C° 0.1 mm 2 mps 751 mmHg 90%
    14:00 -2°C° 0 mm 2 mps 750 mmHg 91%
    15:00 -3°C° 0 mm 2 mps 750 mmHg 91%
    16:00 -3°C° 0 mm 2 mps 750 mmHg 92%
    17:00 -3°C° 0 mm 2 mps 749 mmHg 92%
    18:00 -3°C° 0 mm 2 mps 749 mmHg 92%
    19:00 -3°C° 0 mm 2 mps 749 mmHg 92%
    20:00 -4°C° 0 mm 2 mps 748 mmHg 92%
    21:00 -4°C° 0 mm 2 mps 748 mmHg 91%
    22:00 -4°C° 0 mm 2 mps 747 mmHg 91%
    23:00 -5°C° 0 mm 3 mps 747 mmHg 91%

    Tomorrow, 21 November, Wednesday

    Time Temperature Precipitation Wind Pressure Humidity
    00:00 -5°C° 0 mm 3 mps 747 mmHg 90%
    01:00 -6°C° 0 mm 3 mps 746 mmHg 90%
    02:00 -7°C° 0 mm 4 mps 746 mmHg 90%
    03:00 -7°C° 0 mm 4 mps 745 mmHg 90%
    04:00 -7°C° 0 mm 4 mps 744 mmHg 90%
    05:00 -7°C° 0.1 mm 5 mps 744 mmHg 90%
    06:00 -7°C° 0.1 mm 5 mps 743 mmHg 89%
    07:00 -8°C° 0.1 mm 6 mps 743 mmHg 88%
    08:00 -8°C° 0.4 mm 6 mps 742 mmHg 89%
    09:00 -6°C° 0.4 mm 6 mps 741 mmHg 90%
    10:00 -6°C° 0.4 mm 6 mps 741 mmHg 90%
    11:00 -6°C° 0.4 mm 6 mps 740 mmHg 89%
    12:00 -6°C° 0.4 mm 6 mps 740 mmHg 88%
    13:00 -6°C° 0.4 mm 6 mps 739 mmHg 88%
    14:00 -6°C° 0.2 mm 6 mps 739 mmHg 88%
    15:00 -5°C° 0.2 mm 6 mps 738 mmHg 89%
    16:00 -5°C° 0.2 mm 6 mps 738 mmHg 89%
    17:00 -6°C° 0.1 mm 6 mps 738 mmHg 86%
    18:00 -6°C° 0.1 mm 6 mps 738 mmHg 83%
    19:00 -8°C° 0.1 mm 6 mps 738 mmHg 80%
    20:00 -9°C° 0 mm 6 mps 739 mmHg 81%
    21:00 -9°C° 0 mm 6 mps 739 mmHg 82%
    22:00 -10°C° 0 mm 6 mps 739 mmHg 84%
    23:00 -10°C° 0 mm 6 mps 739 mmHg 84%

    Day after tomorrow, 22 November, Thursday

    Time Temperature Precipitation Wind Pressure Humidity
    00:00 -11°C° 0 mm 6 mps 739 mmHg 84%
    01:00 -11°C° 0 mm 5 mps 739 mmHg 85%
    02:00 -11°C° 0 mm 5 mps 739 mmHg 87%
    03:00 -11°C° 0 mm 5 mps 739 mmHg 89%
    04:00 -11°C° 0 mm 4 mps 739 mmHg 91%
    05:00 -11°C° 0 mm 5 mps 739 mmHg 91%
    06:00 -11°C° 0 mm 5 mps 739 mmHg 91%
    07:00 -10°C° 0 mm 5 mps 738 mmHg 90%
    08:00 -11°C° 0 mm 5 mps 739 mmHg 90%
    09:00 -11°C° 0 mm 5 mps 739 mmHg 90%
    10:00 -10°C° 0 mm 4 mps 739 mmHg 90%
    11:00 -10°C° 0 mm 4 mps 738 mmHg 89%
    12:00 -9°C° 0 mm 4 mps 738 mmHg 87%
    13:00 -8°C° 0 mm 3 mps 738 mmHg 86%
    14:00 -8°C° 0.1 mm 3 mps 738 mmHg 88%
    15:00 -9°C° 0.1 mm 3 mps 737 mmHg 90%
    16:00 -8°C° 0.1 mm 2 mps 737 mmHg 93%
    17:00 -8°C° 0.3 mm 3 mps 736 mmHg 93%
    18:00 -9°C° 0.3 mm 4 mps 735 mmHg 93%
    19:00 -8°C° 0.3 mm 4 mps 735 mmHg 93%
    20:00 -8°C° 0.5 mm 5 mps 734 mmHg 93%
    21:00 -7°C° 0.5 mm 5 mps 733 mmHg 92%
    22:00 -8°C° 0.5 mm 6 mps 732 mmHg 91%
    23:00 -8°C° 0.3 mm 6 mps 732 mmHg 92%

    23 November, Friday

    Time Temperature Precipitation Wind Pressure Humidity
    00:00 -8°C° 0.3 mm 6 mps 731 mmHg 92%
    01:00 -7°C° 0.3 mm 5 mps 731 mmHg 92%
    02:00 -7°C° 0.4 mm 5 mps 731 mmHg 92%
    03:00 -7°C° 0.4 mm 5 mps 731 mmHg 93%
    04:00 -7°C° 0.4 mm 5 mps 731 mmHg 93%
    05:00 -8°C° 0 mm 5 mps 731 mmHg 93%
    06:00 -8°C° 0 mm 4 mps 731 mmHg 93%
    07:00 -9°C° 0 mm 4 mps 732 mmHg 94%
    08:00 -10°C° 0 mm 4 mps 732 mmHg 92%
    09:00 -12°C° 0 mm 5 mps 733 mmHg 91%
    10:00 -12°C° 0 mm 5 mps 734 mmHg 89%
    11:00 -12°C° 0 mm 5 mps 735 mmHg 87%
    12:00 -13°C° 0 mm 5 mps 736 mmHg 84%
    13:00 -13°C° 0 mm 5 mps 737 mmHg 82%
    14:00 -13°C° 0 mm 5 mps 738 mmHg 82%
    15:00 -14°C° 0 mm 5 mps 739 mmHg 83%
    16:00 -14°C° 0 mm 5 mps 739 mmHg 83%
    17:00 -14°C° 0 mm 4 mps 740 mmHg 85%
    18:00 -14°C° 0 mm 4 mps 741 mmHg 87%
    19:00 -15°C° 0 mm 4 mps 742 mmHg 89%
    20:00 -15°C° 0 mm 4 mps 742 mmHg 90%
    21:00 -16°C° 0 mm 4 mps 742 mmHg 91%
    22:00 -16°C° 0 mm 4 mps 743 mmHg 92%
    23:00 -16°C° 0 mm 4 mps 743 mmHg 93%

    24 November, Saturday

    Time Temperature Precipitation Wind Pressure Humidity
    00:00 -16°C° 0 mm 4 mps 743 mmHg 93%
    01:00 -15°C° 0 mm 4 mps 743 mmHg 94%
    02:00 -14°C° 0.1 mm 5 mps 743 mmHg 93%
    03:00 -13°C° 0.1 mm 5 mps 743 mmHg 92%
    04:00 -14°C° 0.1 mm 6 mps 743 mmHg 91%
    05:00 -12°C° 0.1 mm 6 mps 743 mmHg 91%
    06:00 -12°C° 0.1 mm 6 mps 743 mmHg 90%
    07:00 -11°C° 0.1 mm 6 mps 743 mmHg 90%
    08:00 -11°C° 0 mm 6 mps 743 mmHg 90%
    09:00 -11°C° 0 mm 6 mps 743 mmHg 91%
    10:00 -11°C° 0 mm 6 mps 744 mmHg 91%
    11:00 -10°C° 0.1 mm 6 mps 744 mmHg 90%
    12:00 -9°C° 0.1 mm 6 mps 744 mmHg 90%
    13:00 -9°C° 0.1 mm 6 mps 744 mmHg 89%
    14:00 -9°C° 0.2 mm 7 mps 744 mmHg 89%
    15:00 -8°C° 0.2 mm 7 mps 744 mmHg 89%
    16:00 -8°C° 0.2 mm 7 mps 744 mmHg 89%
    17:00 -8°C° 0.1 mm 8 mps 744 mmHg 88%
    18:00 -8°C° 0.1 mm 8 mps 744 mmHg 87%
    19:00 -8°C° 0.1 mm 8 mps 744 mmHg 86%
    20:00 -8°C° 0.1 mm 8 mps 744 mmHg 87%
    21:00 -8°C° 0.1 mm 7 mps 744 mmHg 87%
    22:00 -8°C° 0.1 mm 7 mps 744 mmHg 87%
    23:00 -8°C° 0 mm 7 mps 744 mmHg 88%

    25 November, Sunday

    Time Temperature Precipitation Wind Pressure Humidity
    00:00 -8°C° 0 mm 7 mps 744 mmHg 88%
    01:00 -8°C° 0 mm 7 mps 744 mmHg 88%
    02:00 -8°C° 0 mm 7 mps 744 mmHg 88%
    03:00 -8°C° 0 mm 7 mps 744 mmHg 88%
    04:00 -8°C° 0 mm 7 mps 744 mmHg 88%
    05:00 -8°C° 0.1 mm 7 mps 744 mmHg 88%
    06:00 -8°C° 0.1 mm 7 mps 743 mmHg 88%
    07:00 -8°C° 0.1 mm 7 mps 743 mmHg 88%
    08:00 -7°C° 0.1 mm 7 mps 743 mmHg 88%
    09:00 -7°C° 0.1 mm 7 mps 743 mmHg 88%
    10:00 -7°C° 0.1 mm 7 mps 743 mmHg 87%
    11:00 -7°C° 0.1 mm 7 mps 743 mmHg 87%
    12:00 -7°C° 0.1 mm 7 mps 743 mmHg 86%
    13:00 -7°C° 0.1 mm 7 mps 743 mmHg 86%
    14:00 -7°C° 0.1 mm 7 mps 743 mmHg 86%
    15:00 -6°C° 0.1 mm 6 mps 743 mmHg 87%
    16:00 -6°C° 0.1 mm 6 mps 744 mmHg 88%
    17:00 -6°C° 0 mm 5 mps 744 mmHg 89%
    18:00 -6°C° 0 mm 5 mps 745 mmHg 90%
    19:00 -7°C° 0 mm 5 mps 745 mmHg 91%
    20:00 -7°C° 0 mm 4 mps 746 mmHg 92%
    21:00 -7°C° 0 mm 4 mps 746 mmHg 93%
    22:00 -7°C° 0 mm 4 mps 746 mmHg 93%
    23:00 -7°C° 0 mm 3 mps 747 mmHg 94%
    Show more